{"data":{"norad_id":60321,"epoch":"2026-05-25T03:09:55.806624Z","epoch_age_seconds":66601,"freshness":"FRESH","line1":"1 60321U 24133W   26145.13189591 -.00000651  00000+0 -98733-5 0  9998","line2":"2 60321  53.1616 302.0171 0001071  82.1204 277.9918 15.30186334103434","mean_motion":15.30186334,"eccentricity":0.0001071,"inclination_deg":53.1616,"raan_deg":302.0171,"arg_perigee_deg":82.1204,"mean_anomaly_deg":277.9918,"bstar":-9.8733e-6,"rev_number":10343,"period_min":94.106186155496,"perigee_km":474.52187555889,"apogee_km":475.98987231249,"semimajor_km":6853.3928739357,"source":"CELESTRAK","updated_at":"2026-05-25T13:38:19.232245Z"}}